{"data":{"norad_id":43717,"intl_designator":"2018-095A","name":"MOHAMMED VI-B","alt_names":[],"object_type":"PAYLOAD","status":"ACTIVE","operator":null,"country":"MA","launch_date":"2018-11-21","launch_site_code":"FRGUI","launch_vehicle":null,"mission":null,"orbit_class":"UNKNOWN","rcs_meters":null,"size_class":null,"mass_kg":null,"dimensions":null,"purposes":[],"wikipedia_slug":null,"has_3d_model":false,"image_url":null,"decayed_at":null,"tle_current":{"epoch":"2026-05-25T03:28:35.288832Z","epoch_age_seconds":72920,"freshness":"FRESH","line1":"1 43717U 18095A   26145.14485288 -.00000027  00000+0  33431-5 0  9991","line2":"2 43717  97.9556 217.7860 0001123  82.8278 277.3060 14.77079727404787","mean_motion":14.77079727,"eccentricity":0.0001123,"inclination_deg":97.9556,"raan_deg":217.786,"arg_perigee_deg":82.8278,"mean_anomaly_deg":277.306,"bstar":3.3431e-6,"rev_number":40478,"period_min":97.489659744007,"perigee_km":637.7692262552,"apogee_km":639.34517577275,"semimajor_km":7016.694201014,"source":"CELESTRAK","updated_at":"2026-05-25T13:37:55.890304Z"}}}